Location: Unspecified
(0.0000°N, 0.0000°E)
Time: 18:02:11
(UTC+00:00)

Vanguard 3 - Pass Details

Date: 11 February 2023
Orbit: 509 x 3249 km, 33.3° (Epoch: 20 March)

Event Time Altitude Azimuth Distance (km) Brightness Sun altitude
Rises 04:18:28 0° 263° (W) 7,214 - -28.0°
Reaches altitude 10° 04:25:52 10° 248° (WSW) 6,077 - -26.2°
Exits shadow 04:27:57 13° 243° (WSW) 5,781 11.0 -25.7°
Maximum altitude 04:37:40 20° 208° (SSW) 4,736 10.9 -23.4°
Drops below altitude 10° 04:47:11 10° 167° (SSE) 4,757 11.4 -21.1°
Sets 04:51:58 0° 150° (SSE) 5,273 12.0 -19.9°
